GW3752 Weather Reports


Display with metric or nautical units.
time (UTC)temp
F
wind
direction
speed
MPH
gust
MPH
rain 1hr
in
rain 24hr
in
rain mn
in
humidity
%
barometer
mb
20260504081529 58 154 5.0 8.0 0.00 0.00 0.00 56 1010.3
20260504044530 59 161 7.0 10.0 0.00 0.00 0.00 50 1011.6
20260504043032 60 168 6.0 13.0 0.00 0.00 0.00 49 1011.7
20260504041534 60 164 8.0 15.0 0.00 0.00 0.00 47 1011.9
20260504040031 60 117 8.0 14.0 0.00 0.00 0.00 48 1012.0
20260504034530 60 173 9.0 13.0 0.00 0.00 0.00 47 1012.1
20260504033028 60 124 6.0 9.0 0.00 0.00 0.00 47 1012.5
20260504031535 61 110 4.0 6.0 0.00 0.00 0.00 59 1012.5
20260504030030 61 123 3.0 7.0 0.00 0.00 0.00 45 1012.7
20260504024529 61 133 2.0 6.0 0.00 0.00 0.00 45 1012.5
20260504023031 62 124 3.0 6.0 0.00 0.00 0.00 45 1012.7
20260504021530 62 152 3.0 6.0 0.00 0.00 0.00 45 1012.7
20260504020028 62 137 6.0 11.0 0.00 0.00 0.00 44 1012.5
20260504014534 61 119 5.0 8.0 0.00 0.00 0.00 57 1012.6
20260504013039 61 172 1.0 3.0 0.00 0.00 0.00 49 1012.8
20260504011534 62 201 1.0 7.0 0.00 0.00 0.00 46 1012.7
20260504010030 62 158 3.0 5.0 0.00 0.00 0.00 45 1012.7
20260504004529 63 125 4.0 9.0 0.00 0.00 0.00 42 1012.5
20260504003033 65 158 7.0 12.0 0.00 0.00 0.00 39 1012.5
20260504001537 66 159 8.0 15.0 0.00 0.00 0.00 37 1012.4
20260504000032 67 152 11.0 18.0 0.00 0.00 0.00 35 1012.3
20260503234539 67 163 12.0 27.0 0.00 0.00 0.00 46 1012.2
20260503233036 67 104 13.0 26.0 0.00 0.00 0.00 34 1012.3
20260503231534 67 171 14.0 28.0 0.00 0.00 0.00 33 1012.3
20260503230030 68 191 15.0 28.0 0.00 0.00 0.00 44 1012.7
20260503224529 68 164 16.0 26.0 0.00 0.00 0.00 44 1012.9
20260503223029 67 131 17.0 25.0 0.00 0.00 0.00 44 1013.0
20260503221535 68 159 17.0 25.0 0.00 0.00 0.00 32 1013.4
20260503220030 68 154 14.0 22.0 0.00 0.00 0.00 34 1013.6
20260503214531 67 190 12.0 27.0 0.00 0.00 0.00 34 1013.8
20260503213033 67 179 14.0 28.0 0.00 0.00 0.00 33 1014.1
20260503211529 67 168 17.0 28.0 0.00 0.00 0.00 44 1014.3
20260503210030 67 113 15.0 25.0 0.00 0.00 0.00 46 1014.9
20260503204532 67 124 14.0 23.0 0.00 0.00 0.00 45 1015.1
20260503203033 67 158 13.0 24.0 0.00 0.00 0.00 46 1015.4
20260503201532 66 150 13.0 21.0 0.00 0.00 0.00 47 1015.7
20260503200031 65 111 10.0 28.0 0.00 0.00 0.00 47 1016.2
20260503194528 65 152 14.0 26.0 0.00 0.00 0.00 47 1016.6
20260503193028 65 119 13.0 26.0 0.00 0.00 0.00 36 1016.8
20260503191534 65 185 12.0 22.0 0.00 0.00 0.00 37 1017.2
20260503190030 65 171 14.0 24.0 0.00 0.00 0.00 51 1017.3
20260503184531 64 189 12.0 23.0 0.00 0.00 0.00 37 1017.9
20260503183031 63 187 14.0 21.0 0.00 0.00 0.00 51 1018.1
20260503181532 63 184 14.0 23.0 0.00 0.00 0.00 50 1018.5
20260503180032 63 157 11.0 22.0 0.00 0.00 0.00 42 1018.7
20260503174529 62 178 10.0 20.0 0.00 0.00 0.00 55 1019.1
20260503173030 62 162 10.0 20.0 0.00 0.00 0.00 57 1019.3
20260503171530 62 112 9.0 22.0 0.00 0.00 0.00 57 1019.5